Location: Driftpile
(55.3500°N, 115.7667°W)
Time: 09:02:39
(UTC+00:00)

N. Korean satellite - Pass Details

Date: 02 December 2021
Orbit: 447 x 490 km, 97.3° (Epoch: 26 January)

Event Time Altitude Azimuth Distance (km) Brightness Sun altitude
Rises 13:34:50 0° 11° (N) 2,486 10.1 -17.7°
Reaches altitude 10° 13:36:54 10° 7° (N) 1,601 9.1 -17.4°
Maximum altitude 13:40:16 55° 289° (WNW) 550 6.4 -16.9°
Drops below altitude 10° 13:43:34 10° 211° (SSW) 1,577 9.0 -16.5°
Sets 13:45:36 0° 207° (SSW) 2,442 10.0 -16.2°
